Location: Huppendorf
(49.9333°N, 11.1500°E)
Time: 20:37:43
(UTC+00:00)

Ariane Rocket - Pass Details

Date: 27 February 2020
Orbit: 759 x 771 km, 98.7° (Epoch: 07 April)

Event Time Altitude Azimuth Distance (km) Brightness Sun altitude
Rises 17:46:54 0° 145° (SE) 3,234 5.9 -9.4°
Reaches altitude 10° 17:49:15 10° 139° (SE) 2,312 5.1 -9.8°
Maximum altitude 17:54:07 47° 67° (ENE) 1,017 3.3 -10.5°
Drops below altitude 10° 17:59:01 10° 355° (N) 2,326 5.6 -11.3°
Sets 18:01:24 0° 350° (N) 3,256 6.4 -11.7°
